Powrót do katalogu

USA 76

AktywnyMilitariaLEO
NORAD 21808·PAYLOAD·🇺🇸 United States

Wystrzelony Nov 8, 1991 z Vandenberg Space Force Base

Loading…

Następne Przeloty (najbliższe 24 godziny)

TLE

ŚwieżeSource: Space-Track

Epoka: Sep 14, 2026, 11:59 UTC

1 21808U 91076D   26257.49980479  .00003434  00000-0  26716-3 0  9993
2 21808  63.2962 273.0796 0883211  76.1790 293.5838 13.60591116118186

Śledź USA 76 w czasie rzeczywistym z AllMySat

Download on the App Store